DW3371 Weather Reports


Display with metric or nautical units.
time (UTC)temp
F
wind
direction
speed
MPH
gust
MPH
rain 1hr
in
rain 24hr
in
rain mn
in
humidity
%
barometer
mb
20260902105729 68 244 6.0 14.0 0.00 0.00 0.00 73 1016.7
20260902095725 66 244 7.0 12.0 0.00 0.00 0.00 78 1017.0
20260902075724 63 0 5.0 10.0 0.00 0.00 0.00 83 1017.0
20260902062714 60 238 3.0 8.0 0.00 0.00 0.00 83 1016.5
20260902055716 60 0 3.0 9.0 0.00 0.00 0.00 83 1016.5
20260902042713 59 236 0.0 0.0 0.00 0.00 0.00 82 1016.5
20260902035717 58 223 2.0 5.0 0.00 0.00 0.00 82 1016.3
20260902032710 59 270 1.0 6.0 0.00 0.00 0.00 81 1016.6
20260902025709 59 236 2.0 5.0 0.00 0.00 0.00 80 1016.8
20260902022714 60 230 1.0 5.0 0.00 0.00 0.00 79 1016.6
20260902015707 60 229 2.0 5.0 0.00 0.00 0.00 77 1016.8
20260902005707 63 261 4.0 8.0 0.00 0.00 0.00 73 1017.3
20260902002707 64 244 3.0 10.0 0.00 0.00 0.00 72 1017.2
20260901235707 64 250 4.0 9.0 0.00 0.00 0.00 72 1017.1
20260901222710 65 250 2.0 7.0 0.00 0.00 0.00 71 1017.0
20260901212707 65 0 5.0 10.0 0.00 0.00 0.00 69 1017.1
20260901205712 66 257 4.0 10.0 0.00 0.00 0.00 68 1017.2
20260901202707 67 263 5.0 12.0 0.00 0.00 0.00 66 1017.2
20260901195710 68 259 4.0 9.0 0.00 0.00 0.00 64 1017.2
20260901192705 68 290 4.0 8.0 0.00 0.00 0.00 60 1016.8
20260901182704 69 276 5.0 10.0 0.00 0.00 0.00 54 1016.5
20260901165700 72 274 6.0 14.0 0.00 0.00 0.00 49 1016.4
20260901152655 73 279 9.0 16.0 0.00 0.00 0.00 46 1016.9
20260901145658 72 0 8.0 16.0 0.00 0.00 0.00 48 1016.8
20260901135659 73 243 9.0 18.0 0.00 0.00 0.00 47 1017.0
20260901132654 71 270 8.0 16.0 0.00 0.00 0.00 50 1017.1
20260901125653 71 236 9.0 15.0 0.00 0.00 0.00 51 1017.2
20260901122655 70 0 7.0 17.0 0.00 0.00 0.00 51 1017.2
20260901115704 69 274 8.0 14.0 0.00 0.00 0.00 53 1017.5
20260901112654 69 279 7.0 13.0 0.00 0.00 0.00 54 1017.5